Regional Weather Roundup
Issued by NWS Grand Forks, ND

Home | Current Version | Previous Version | Graphics & Text | Print | Product List | Glossary On
Versions: 1 2 3 4 5 6 7 8 9 10 11 12 13 14 15 16 17 18 19 20 21 22 23 24 25 26 27 28 29 30 31 32 33 34 35 36 37 38 39 40 41 42 43 44 45 46 47 48 49 50
000
ASUS43 KFGF 251231
RWRFGF
PRAIRIE TO PINES  WEATHER ROUNDUP
NATIONAL WEATHER SERVICE EASTERN NORTH DAKOTA/GRAND FORKS ND
600 AM CST SUN JAN 25 2015

 **SATELLITE DATA USED TO AUGMENT SKY COVER AT AUTOMATED STATIONS**
 *****  WEATHER ACROSS EASTERN NORTH DAKOTA  *****

CITY           SKY/WX    TMP DP  RH WIND       PRES   REMARKS
GRAND FORKS    CLEAR     12   8  84 N5        29.99S WCI   4
6HR MIN TEMP:  12; 6HR MAX TEMP:  21;

GRAND FRKS AFB CLEAR     11   7  84 N7        30.01R WCI   0
GRAND FRKS NWS   N/A     12 N/A N/A VRB2        N/A
DEVILS LAKE    CLOUDY    16   9  73 CALM      29.96S
6HR MIN TEMP:  16; 6HR MAX TEMP:  18;

FARGO          CLOUDY    22  14  71 N13       29.97R WCI  10
WAHPETON ARPT  CLOUDY    21  18  86 N9        29.95R WCI  11
$$

 ***** WEATHER ACROSS CENTRAL AND WESTERN NORTH DAKOTA  *****

CITY           SKY/WX    TMP DP  RH WIND       PRES   REMARKS
BISMARCK       CLOUDY    36  32  85 NW13      29.95S
6HR MIN TEMP:  36; 6HR MAX TEMP:  38; 6HR PCP: TRACE;

MINOT          CLOUDY    23  21  92 NE3       29.95S FOG
6HR MIN TEMP:  24; 6HR MAX TEMP:  30; 6HR PCP: TRACE;

JAMESTOWN      CLOUDY    20  17  88 N5        29.95F WCI  13
6HR MIN TEMP:  20; 6HR MAX TEMP:  24; 6HR PCP:  0.01;

MINOT AFB      MIX PCPN  23  23 100 N5        29.95S WCI  17
GARRISON         N/A     34  33  96 NW10      29.93R
WILLISTON      CLOUDY    34  29  82 N16       29.99S WCI  24
6HR MIN TEMP:  34; 6HR MAX TEMP:  37;

DICKINSON      CLOUDY    34  28  79 NW12      29.96S
6HR MIN TEMP:  32; 6HR MAX TEMP:  35;

HETTINGER      CLOUDY    33  27  78 NW17      29.99F WCI  22
6HR MIN TEMP:  31; 6HR MAX TEMP:  35;

$$

 *****  OTHER AIRPORT OBSERVATIONS IN OUR AREA  *****

CITY           SKY/WX    TMP DP  RH WIND       PRES   REMARKS
WALHALLA         N/A     12  12 100 NW5       30.02S WCI   4
GRAFTON AIRPOR NOT AVBL
VALLEY CITY AR NOT AVBL
CANDO          CLOUDY    16  10  79 NE3       29.98S
CAVALIER APRT  CLOUDY    16  10  79 N5        30.02S WCI   9
GWINNER        CLOUDY    23  21  93 N13       29.98R WCI  11
SHEYENNE NWR     N/A     20  15  79 N7        29.95S WCI  11
ROLLA          CLOUDY    14  12  92 CALM      29.96S
 ***** THE ABOVE OBSERVATIONS ARE NON NWS ARE NOT QUALITY
       CONTROLLED AND MAY MIS-REPORT RAIN FOR SNOW...
$$

  *****  WEATHER ACROSS NORTHERN MINNESOTA  *****

CITY           SKY/WX    TMP DP  RH WIND       PRES   REMARKS
FLAG ISLAND    CLOUDY     7   0  72 E3        30.02R
WARROAD        CLOUDY     9   1  72 E9        30.01R WCI  -5
ROSEAU         CLOUDY    10   3  72 NE7       30.00R WCI   0
HALLOCK        PTCLDY    10   3  72 E5        30.02R WCI   2
THF RVR FALLS  CLEAR     10   5  79 NE6       29.98R WCI   1
6HR MIN TEMP:  10; 6HR MAX TEMP:  18;

BAUDETTE       CLOUDY     7  -1  70 E9        29.98R WCI  -7
6HR MIN TEMP:   7; 6HR MAX TEMP:  12;

WASKISH        CLOUDY     9   3  78 NE6       29.99R WCI  -1
CROOKSTON      CLEAR     14   9  79 NE6       30.00R WCI   5
STEPHEN NDAWN    N/A      7   3  85 N3          N/A
GREENBUSH NDAW   N/A      7   3  85 NE3         N/A
$$
  *****  WEATHER ACROSS CENTRAL AND WEST MINNESOTA  *****

CITY           SKY/WX    TMP DP  RH WIND       PRES   REMARKS
FOSSTON        PTCLDY     9   5  85 NE6       29.96R WCI  -1
BEMIDJI        CLOUDY    15  10  79 NE5       29.93S WCI   7
PARK RAPIDS    CLOUDY    21  13  71 N3        29.91R
6HR MIN TEMP:  21; 6HR MAX TEMP:  28;

ELBOW LAKE     CLOUDY    28  24  87 N3        29.92R
WADENA         CLOUDY    21  16  79 NE8       29.91R WCI  12
DETROIT LAKES  MOCLDY    23  18  80 E3        29.92S
MOORHEAD       CLOUDY    21  19  93 N10       29.97R WCI  10
FERGUS FALLS   CLOUDY    23  21  93 CALM      29.96R
MORRIS MN      CLOUDY    30  27  86 N8        29.91R WCI  23
STAPLES        CLOUDY    25  19  80 E5        29.92R WCI  19
$$
  *****  WEATHER ELSEWHERE ACROSS MINNESOTA  *****

CITY           SKY/WX    TMP DP  RH WIND       PRES   REMARKS
DULUTH         FLURRIES  17  12  80 NE9       29.93R WCI   6
6HR MIN TEMP:  17; 6HR MAX TEMP:  21; 6HR PCP: TRACE;

INTRNTL FALLS  CLOUDY     3  -5  69 E7        30.01R WCI  -9
6HR MIN TEMP:   3; 6HR MAX TEMP:   7;

ELY            PTCLDY    -6  -9  84 CALM      29.98S
CLOQUET        FLURRIES  18  12  79 NE8       29.94R WCI   7
WHEATON        CLOUDY    23  21  93 NW12      29.96R WCI  12
BRAINERD       CLOUDY    21  14  74 E10       29.92R WCI  10
6HR MIN TEMP:  21; 6HR MAX TEMP:  28;

HIBBING        CLOUDY    16   7  67 E7        29.94R WCI   6
6HR MIN TEMP:  16; 6HR MAX TEMP:  21;

ALEXANDRIA     CLOUDY    29  25  85 NE7       29.90R WCI  22
6HR MIN TEMP:  29; 6HR MAX TEMP:  33;

SAINT CLOUD    MOCLDY    24  17  74 NE10      29.90R WCI  14
6HR MIN TEMP:  24; 6HR MAX TEMP:  32;

MINNEAPOLIS    CLOUDY    25  17  72 N17G26    29.88R WCI  12
6HR MIN TEMP:  25; 6HR MAX TEMP:  35; 6HR PCP:  0.03;

$$

  *****  WEATHER ACROSS SOUTH DAKOTA  *****

CITY           SKY/WX    TMP DP  RH WIND       PRES   REMARKS
SIOUX FALLS    CLOUDY    33  32  96 N13       29.85R WCI  24
6HR MIN TEMP:  33; 6HR MAX TEMP:  33; 6HR PCP:  0.02;

BROOKINGS      NOT AVBL
WATERTOWN      CLOUDY    29  27  92 N13       29.89R WCI  19
6HR MIN TEMP:  29; 6HR MAX TEMP:  32; 6HR PCP: TRACE;

HURON          CLOUDY    30  29  96 NW12      29.93R WCI  20
6HR MIN TEMP:  30; 6HR MAX TEMP:  32; 6HR PCP: TRACE;

SISSETON         N/A     25  23  92 N14       29.93R WCI  13
ABERDEEN       CLOUDY    29  26  89 N12       29.96R WCI  19
6HR MIN TEMP:  29; 6HR MAX TEMP:  32; 6HR PCP:  0.01;

MITCHELL       CLOUDY    32  30  92 NW15      29.93R WCI  22
PIERRE         CLOUDY    37  31  78 NW18      29.95R
6HR MIN TEMP:  36; 6HR MAX TEMP:  39; 6HR PCP: TRACE;

MOBRIDGE       CLOUDY    38  33  82 NW13      29.92R
RAPID CITY     CLEAR     36  21  54 N18       30.01F
6HR MIN TEMP:  36; 6HR MAX TEMP:  40;

$$

  *****  SOME WEATHER IN NEARBY STATES *****

CITY           SKY/WX    TMP DP  RH WIND       PRES   REMARKS
GLASGOW MT     PTCLDY    30  24  78 W6        30.01F WCI  24
6HR MIN TEMP:  29; 6HR MAX TEMP:  33;

GREAT FALLS MT CLOUDY    48  38  68 SW18      29.98F
6HR MIN TEMP:  43; 6HR MAX TEMP:  48;

CHEYENNE WY    CLEAR     35  23  61 NW12      30.12R
6HR MIN TEMP:  34; 6HR MAX TEMP:  39;

SCOTTSBLUFF NE CLEAR     35  28  75 W17       30.10R WCI  25
6HR MIN TEMP:  35; 6HR MAX TEMP:  39;

OMAHA NE       CLOUDY    36  32  85 N23G33    29.74R
6HR MIN TEMP:  35; 6HR MAX TEMP:  45; 6HR PCP:  0.01;

DES MOINES IA  CLOUDY    38  34  85 N12       29.62R
6HR MIN TEMP:  38; 6HR MAX TEMP:  42; 6HR PCP:  0.05;

DAVENPORT IA   LGT SNOW  33  30  88 E22       29.64R FOG     WCI  21
6HR MIN TEMP:  33; 6HR MAX TEMP:  36; 6HR PCP:  0.01;

CHICAGO IL     LGTSLEET  33  31  92 NE17      29.72R WCI  22
6HR MIN TEMP:  31; 6HR MAX TEMP:  34;

EAU CLAIRE WI  CLOUDY    24  16  71 NE13      29.86R WCI  12
6HR MIN TEMP:  24; 6HR MAX TEMP:  35;

LA CROSSE WI   CLOUDY    30  23  75 E9G20     29.81R WCI  22
6HR MIN TEMP:  30; 6HR MAX TEMP:  37; 6HR PCP: TRACE;

$$

  *****  SOME NATIONAL WEATHER *****

CITY           SKY/WX    TMP DP  RH WIND       PRES   REMARKS
LA GUARDIA NY  MOCLDY    36  25  64 SW12G20   29.65R
6HR MIN TEMP:  35; 6HR MAX TEMP:  37;

RALEIGH NC     PTCLDY    30  25  81 CALM      29.91R
6HR MIN TEMP:  29; 6HR MAX TEMP:  36;

ATLANTA GA     PTCLDY    32  27  81 SW5       29.96S
6HR MIN TEMP:  31; 6HR MAX TEMP:  36;

NEW ORLEANS LA CLEAR     41  39  93 S6        30.06R
6HR MIN TEMP:  41; 6HR MAX TEMP:  45;

OKLAHOMA CITY  PTCLDY    52  33  48 NW16G26   29.94R
6HR MIN TEMP:  48; 6HR MAX TEMP:  53;

ALBUQUERQUE NM PTCLDY    27  19  72 CALM      30.26R
6HR MIN TEMP:  25; 6HR MAX TEMP:  39;

SALT LAKE CITY MOCLDY    35  29  78 NW3       30.45F
6HR MIN TEMP:  33; 6HR MAX TEMP:  36;

LOS ANGELES CA CLEAR     55  33  43 CALM      30.02F



USA.gov is the U.S. government's official web portal to all federal, state and local government web resources and services.